Location: Riverside
(39.1734°N, 77.8561°W)
Time: 22:37:29
(UTC+00:00)

Hubble Space Telescope - Pass Details

Date: 26 November 2019
Orbit: 536 x 540 km, 28.5° (Epoch: 11 December)

Event Time Altitude Azimuth Distance (km) Brightness Sun altitude
Rises 23:11:52 0° 250° (WSW) 2,668 6.2 -15.5°
Reaches altitude 10° 23:14:56 10° 226° (SW) 1,778 4.3 -16.1°
Maximum altitude 23:17:17 15° 191° (S) 1,495 3.3 -16.6°
Drops below altitude 10° 23:19:37 10° 156° (SSE) 1,777 3.3 -17.0°
Enters shadow 23:20:43 - 145° (SE) 2,053 3.5 -17.2°
